Preview of NWS' New Version of Forecast
This preview is not operational and should not be used for support decisions.

Regional Weather Roundup (RWR)

Issued by National Weather Service (NWS)

                            
000
ASUS44 KMEG 220210
RWRTN 
TENNESSEE HOURLY STATE WEATHER ROUNDUP
NATIONAL WEATHER SERVICE MEMPHIS TN
900 PM CDT SUN JUL 21 2019

TNZ002-004-019-021-049-052-054-088>092-220300-
WEST TENNESSEE
  
CITY           SKY/WX    TMP DP  RH WIND       PRES   REMARKS
MEMPHIS INTL   FAIR      82  76  81 S7        29.93F                  
NWS MEMPHIS      N/A     80 N/A N/A MISG        N/A                   
JACKSON        FAIR      79  75  87 CALM      29.96R                  
DYERSBURG      FAIR      80  76  87 CALM      29.94R                  
SOMERVILLE     CLEAR     79  77  94 CALM      29.94S                  
COVINGTON      CLEAR     79  75  89 S7        29.93S                  
UNION CITY     CLEAR     81  75  83 S6        29.91S                  
BOLIVAR        CLEAR     79  75  89 S3        29.95R                  
PARIS          PTCLDY    79  77  94 CALM      29.94R                  
HUNTINGDON     PTCLDY    81  77  89 CALM      29.94S                  
LEXINGTON      CLEAR     81  77  89 CALM      29.95R                  
SELMER         PTCLDY    79  77  94 CALM      29.96R                  
SAVANNAH       PTCLDY    79  77  94 SE3       29.97R                  
$$

TNZ008-025-027-028-033-062-065-066-220300-
NORTH MIDDLE TENNESSEE
  
CITY           SKY/WX    TMP DP  RH WIND       PRES   REMARKS
NASHVILLE      MOCLDY    82  74  76 S5        29.97R                  
PORTLAND       CLEAR     79  75  89 CALM      29.96R                  
CLARKSVILLE    FAIR      81  76  84 SW3       29.94R                  
LEBANON        CLEAR     81  75  83 SW5       29.94R                  
SMYRNA         FAIR      81  74  79 SW3       29.98R                  
MURFREESBORO   CLEAR     81  73  78 S7        29.95S                  
LIVINGSTON     CLEAR     75  73  94 SW5       29.99S                  
GALLATIN       CLEAR     81  77  89 CALM      29.98R                  
CROSSVILLE     FAIR      74  71  91 CALM      30.06R                  
ROCKWOOD       PTCLDY    73  73 100 CALM      30.03S                  
$$

TNZ061-075-076-078-094-096-097-220300-
SOUTH MIDDLE TENNESSEE
  
CITY           SKY/WX    TMP DP  RH WIND       PRES   REMARKS
LAWRENCEBURG   CLEAR     77  73  88 CALM      29.98S                  
LEWISBURG      CLEAR     79  75  89 CALM      29.97R                  
FAYETTEVILLE   PTCLDY    79  75  89 CALM      29.99S                  
TULLAHOMA      CLEAR     77  73  88 S3        30.00R                  
WINCHESTER     CLEAR     77  75  94 SE3       30.00R                  
MCMINNVILLE    CLEAR     77  72  83 VRB3      30.00R                  
COLUMBIA       CLEAR     81  81 100 CALM      29.96R HX  91           
SHELBYVILLE    CLEAR     75  73  94 S5        29.98R                  
$$

TNZ017-018-042-046-047-220300-
NORTHEAST TENNESSEE
  
CITY           SKY/WX    TMP DP  RH WIND       PRES   REMARKS
TRI CITIES     MOCLDY    79  70  74 SW7       30.03R                  
ELIZABETHTON   MOCLDY    75  72  88 CALM      30.03R                  
GREENEVILLE    MOCLDY    75  72  88 CALM      30.03R                  
$$

TNZ012-013-036-069-073-074-220300-
CENTRAL EAST TENNESSEE
  
CITY           SKY/WX    TMP DP  RH WIND       PRES   REMARKS
KNOXVILLE      FAIR      81  72  74 SW5       29.99R                  
OAK RIDGE      FAIR      81  73  76 VRB3      30.01R                  
DOWNTOWN KNOXV CLEAR     79  75  89 CALM      29.99S                  
GATLINBURG     PTCLDY    81  72  74 SW6       29.99S                  
MORRISTOWN     CLEAR     79  73  83 CALM      30.01R                  
JACKSBORO      CLEAR     73  73 100 CALM      30.03F                  
$$

TNZ083-085-099-220300-
SOUTHEAST TENNESSEE
  
CITY           SKY/WX    TMP DP  RH WIND       PRES   REMARKS
CHATTANOOGA    MOCLDY    83  72  69 SW5       30.00R                  
DAYTON         PTCLDY    79  75  89 CALM      29.99R                  
$$

SKY/WX REPORTED AS FAIR MEANS FEW OR NO CLOUDS BELOW
12 THOUSAND FEET.